Flag for U.S.A. Weather past 2 weeks in Lakeland, Florida, U.S.A.

Now
72 °F

Scattered clouds.


Feels Like: 74 °F
Forecast: 62 / 81 °F
Wind: No wind

Location: Lakeland Regional

Current Time: Apr 1, 2015 at 11:21:58 AM

Latest Report: Apr 1, 2015 at 10:50 AM


Visibility: 10 mi

Pressure: 30.18 "Hg

Humidity: 73%

Dew point: 63 °F

Location of LakelandLocation

Historic Weather in Lakeland — Graph

°F

Lakeland temperature yesterday

Maximum temperature yesterday: 81 °F (at 2:50 PM)
Minimum temperature yesterday: 54 °F (at 4:55 AM)
Average temperature yesterday: 65 °F

Past Weeks' High & Low Weather Summary

 TemperatureHumidityPressure
High88 °F (Mar 26, 2:50 PM)100% (Mar 18, 1:15 AM)30.37 "Hg (Mar 18, 1:15 AM)
Low46 °F (Mar 29, 6:50 AM)33% (Mar 29, 4:50 PM)29.83 "Hg (Mar 27, 3:51 PM)
Average69 °F78%30.06 "Hg
* Reported Mar 17 9:50 AM — Apr 1 9:50 AM, Lakeland, Weather by CustomWeather, © 2015

Note: Actual official high and low records may vary slightly from our data, if they occured in-between our weather recording intervals... More about our weather records

Advertising

Lakeland weather history for previous 24 hours

 ConditionsComfort  
Time TempWeatherWind HumidityBarometerVisibility
9:50 AM
Wed, Apr 1
66 °FScattered clouds.No wind94%30.17 "Hg10 mi
8:50 AM61 °FFog.7 mph100%30.15 "Hg1 mi
7:50 AM57 °FFog.No wind100%30.13 "Hg0 mi
6:50 AM57 °FFog.No wind100%30.10 "Hg0 mi
5:45 AM57 °FFog.No wind100%30.08 "Hg0 mi
5:35 AM59 °FFog.No wind94%30.08 "Hg0 mi
5:15 AM57 °FFog.3 mph100%30.08 "Hg0 mi
4:55 AM59 °FFog.No wind100%30.08 "Hg0 mi
4:35 AM63 °FFog.No wind94%30.08 "Hg0 mi
4:15 AM63 °FFog.No wind94%30.09 "Hg1 mi
3:55 AM63 °FFog.5 mph94%30.09 "Hg5 mi
3:35 AM63 °FClear.6 mph94%30.10 "Hg7 mi
3:15 AM63 °FFog.6 mph94%30.10 "Hg5 mi
2:55 AM63 °FClear.5 mph94%30.11 "Hg7 mi
2:15 AM63 °FClear.5 mph94%30.12 "Hg7 mi
1:55 AM63 °FClear.5 mph94%30.12 "Hg10 mi
1:35 AM63 °FClear.3 mph94%30.13 "Hg10 mi
1:15 AM63 °FClear.5 mph94%30.13 "Hg10 mi
12:55 AM63 °FClear.7 mph94%30.13 "Hg10 mi
12:35 AM63 °FClear.5 mph94%30.13 "Hg10 mi
12:15 AM63 °FClear.3 mph94%30.13 "Hg10 mi
11:55 PM
Tue, Mar 31
63 °FClear.No wind94%30.13 "Hg10 mi
11:15 PM64 °FClear.No wind88%30.13 "Hg10 mi
10:55 PM64 °FClear.No wind88%30.13 "Hg10 mi
10:35 PM63 °FClear.No wind88%30.13 "Hg10 mi
10:15 PM66 °FClear.No wind83%30.13 "Hg10 mi
9:50 PM66 °FClear.6 mph83%30.12 "Hg10 mi
8:50 PM70 °FClear.6 mph73%30.10 "Hg10 mi
7:50 PM73 °FSunny.6 mph65%30.09 "Hg10 mi
6:50 PM77 °FSunny.6 mph57%30.08 "Hg10 mi
5:53 PM79 °FScattered clouds.12 mph100%30.07 "Hg12 mi
4:50 PM81 °FScattered clouds.12 mph51%30.08 "Hg12 mi
3:50 PM81 °FPartly sunny.6 mph51%30.09 "Hg12 mi
2:50 PM81 °FPartly sunny.7 mph48%30.11 "Hg12 mi
1:50 PM79 °FPartly sunny.7 mph54%30.14 "Hg10 mi
12:50 PM77 °FScattered clouds.7 mph57%30.16 "Hg10 mi
11:50 AM73 °FPartly sunny.8 mph69%30.18 "Hg10 mi
Weather by CustomWeather, © 2015

See weather overviewHow to use our weather pages